Temperature
18 18 18 18 18 19 20 21 22 22 21 21 20 20 19 18 18 15 14 14 14 14 14 14 14 14 14 14 14 14 14 14 14 14 14 14 14 14 14 14 14 14 14 15 15 15 15 15 15
17 17 18 19 18 19 20 21 21 20 20 20 20 20 19 17 16 15 14 14 14 14 14 14 14 14 14 14 14 14 14 14 14 14 14 14 14 14 14 14 14 14 14 14 14 15 15 15 15
17 17 18 19 19 20 20 20 20 20 20 20 19 18 17 16 15 14 14 14 14 13 13 14 14 14 14 14 14 14 14 14 14 14 14 14 14 14 14 14 14 14 14 14 14 14 14 14 14
17 18 19 18 19 20 20 20 20 20 20 19 19 17 15 14 14 13 14 14 13 13 13 13 14 14 14 14 13 13 13 14 14 14 14 14 14 14 14 14 14 14 14 14 14 14 14 14 14
17 18 18 18 19 20 20 20 20 19 20 19 18 17 15 13 13 13 13 13 13 13 13 13 13 13 13 13 13 13 13 13 13 13 13 13 13 13 14 14 14 14 14 14 14 14 14 14 14
18 19 18 18 19 19 19 19 19 19 19 18 18 17 13 13 13 13 13 13 13 13 12 12 13 13 13 13 13 13 13 13 13 13 13 13 13 13 13 13 13 13 14 14 14 14 14 14 14
18 17 18 19 18 19 19 18 18 17 17 16 16 16 13 12 12 12 12 12 12 12 12 12 12 12 12 13 13 13 13 13 13 13 13 13 13 13 13 13 13 13 13 13 13 13 13 13 13
17 17 18 18 18 18 18 17 17 16 15 15 15 14 12 11 12 12 12 12 12 12 12 12 12 12 12 12 12 12 12 12 12 12 12 12 12 12 13 13 13 13 13 13 13 13 13 13 13
17 16 17 18 18 17 17 16 16 15 14 13 13 12 11 11 11 11 11 11 11 11 11 11 11 11 11 12 12 12 12 12 12 12 12 12 12 12 12 12 12 12 13 13 13 13 13 13 13
16 15 16 16 16 15 15 15 15 15 14 13 12 12 11 11 11 11 11 11 11 11 11 11 11 11 11 11 11 11 11 11 11 11 11 11 11 11 11 12 12 12 12 12 12 12 12 12 12
16 15 15 15 15 14 14 14 14 14 12 12 11 11 10 10 10 10 10 10 10 10 10 10 10 10 10 11 11 11 11 11 11 11 11 11 11 11 11 11 11 12 12 12 12 12 12 12 12
15 14 15 14 14 13 13 13 12 12 11 11 10 10 10 9 9 9 9 9 9 9 10 10 10 10 10 10 10 10 10 10 10 10 10 10 10 10 10 11 11 11 11 11 11 11 11 11 11
14 14 13 13 13 12 12 12 11 10 10 10 10 9 9 9 9 9 9 9 9 9 9 9 9 10 10 10 9 9 9 9 9 10 10 10 10 10 10 10 10 10 10 11 11 11 11 11 11
14 13 13 13 12 12 11 11 11 10 10 10 9 9 8 8 8 8 8 8 8 8 8 9 9 9 9 9 9 9 9 9 9 9 9 9 9 9 9 10 10 10 10 10 10 10 10 11 11
13 13 13 13 13 12 11 11 11 10 10 10 9 8 8 7 7 7 7 7 8 8 8 8 8 8 8 8 8 8 8 8 8 8 8 9 9 9 9 9 9 9 9 10 10 10 10 10 10
14 13 12 13 13 12 11 10 10 10 10 9 9 8 7 7 7 6 6 7 7 7 7 8 7 7 8 8 8 8 8 8 8 8 8 8 8 8 8 8 9 9 9 9 9 9 9 9 10
13 13 13 12 12 12 11 10 10 10 10 9 9 8 7 6 6 6 6 6 6 7 7 7 7 7 7 7 7 7 7 7 7 7 7 7 7 8 8 8 8 8 8 9 9 9 9 9 9
13 13 13 12 12 11 10 10 9 10 9 9 8 8 7 6 5 5 5 5 6 6 6 6 6 6 6 6 7 7 7 7 7 7 7 7 7 7 7 7 7 8 8 8 8 8 8 8 8
13 13 12 12 11 10 10 9 9 9 9 8 8 7 6 6 5 5 5 5 5 5 5 5 6 6 6 6 6 6 6 6 6 6 6 6 6 6 6 6 7 7 7 7 7 8 8 8 8
13 12 11 11 11 10 9 9 9 9 8 8 7 6 6 5 5 4 4 5 5 5 5 5 5 5 5 5 5 5 5 5 5 5 5 6 6 6 6 6 6 6 6 7 7 7 7 7 7
12 11 10 10 9 10 9 8 8 8 8 7 6 6 5 5 4 4 4 4 4 4 4 4 4 4 4 5 5 5 5 5 5 5 5 5 5 5 5 5 5 6 6 6 6 6 6 6 6
10 10 10 9 8 8 9 7 8 7 7 6 6 5 5 4 4 3 3 3 3 3 3 3 4 4 4 4 4 4 4 4 4 4 4 4 4 4 5 5 5 5 5 5 5 5 6 6 6
9 9 9 9 8 8 8 7 8 8 6 5 5 5 4 4 3 3 3 3 3 3 3 3 3 3 3 3 3 3 3 3 3 3 3 3 4 4 4 4 4 4 4 5 5 5 5 5 5
8 8 8 8 8 7 8 8 8 6 6 6 5 5 4 3 3 2 2 2 2 2 2 2 2 2 2 2 2 2 2 2 2 2 2 3 3 3 3 3 3 4 4 4 4 4 5 5 5
8 7 7 7 6 7 9 8 7 6 6 5 5 4 3 3 2 2 2 1 1 1 1 2 2 2 2 2 2 2 2 2 2 2 2 2 2 2 3 3 3 3 3 3 4 4 4 4 4
7 7 7 6 7 7 7 6 5 5 5 5 4 4 3 2 2 1 1 1 1 1 1 1 1 1 1 1 1 1 1 1 1 1 1 1 1 1 2 2 2 2 2 3 3 3 4 4 4
7 7 7 6 6 6 6 6 4 4 4 4 3 3 3 2 1 1 1 0 0 0 -0 -0 -0 0 0 0 0 0 0 0 0 0 0 0 1 1 1 1 1 2 2 2 2 3 3 3 3
6 6 5 5 5 5 7 7 5 3 3 3 3 2 2 1 1 0 0 -0 -0 -0 -1 -1 -1 -1 -1 -0 -0 -1 -0 -0 -0 -0 -0 -0 -0 -0 0 0 1 1 1 1 2 2 2 3 3
5 5 5 5 5 5 5 5 5 4 3 2 2 2 1 1 0 0 -0 -0 -1 -1 -1 -1 -1 -1 -1 -1 -1 -1 -1 -1 -1 -1 -1 -1 -1 -1 -0 -0 0 0 1 1 1 1 2 2 2
5 6 5 4 4 4 4 4 4 3 3 3 2 1 1 0 -0 -0 -1 -1 -1 -1 -2 -2 -2 -2 -2 -2 -2 -2 -2 -2 -2 -2 -2 -2 -2 -1 -1 -1 -1 -0 -0 0 0 1 1 1 2
Wind_Speed
14 12 6 3 3 3 2 1 4 5 4 6 7 5 6 8 7 6 1 5 5 7 10 9 8 8 8 8 8 8 8 8 8 8 8 8 8 8 9 9 9 9 9 9 9 9 9 10 10
12 7 4 3 3 2 1 3 6 7 6 5 4 4 5 7 7 6 4 5 5 7 10 9 9 8 8 8 8 8 7 7 7 8 7 7 7 8 8 8 9 9 8 8 8 8 8 8 8
9 6 3 3 2 1 2 7 8 8 7 4 3 5 5 5 6 5 5 4 5 8 10 10 9 8 8 7 7 7 7 7 7 7 7 7 7 8 8 8 8 8 8 8 7 7 7 7 7
5 3 3 2 1 3 4 6 5 5 5 4 3 5 5 7 5 5 5 5 5 7 10 10 9 8 8 7 7 6 6 6 7 6 6 7 7 7 8 8 8 8 8 8 7 7 7 7 6
3 3 3 2 1 2 5 6 5 4 3 4 4 3 5 7 9 8 6 5 5 7 10 9 8 8 8 8 7 6 6 6 7 7 6 6 6 6 7 7 7 7 7 7 7 7 7 6 5
3 3 2 3 2 3 4 5 5 3 3 4 4 3 5 6 8 7 6 5 7 7 9 9 8 8 8 8 8 7 7 7 6 6 6 6 5 5 6 6 6 6 6 6 6 7 7 6 5
3 3 3 1 1 2 4 6 6 5 6 6 5 3 6 7 7 6 6 6 7 9 9 9 7 7 7 7 7 7 7 6 6 6 6 5 4 4 4 5 5 5 6 6 6 6 6 6 5
4 3 2 1 1 2 4 4 5 7 5 6 6 4 5 5 5 5 5 6 6 8 8 7 6 6 6 5 6 6 7 6 6 6 6 5 4 3 4 4 5 5 5 6 6 6 5 4 3
3 2 1 2 2 3 5 4 4 4 3 4 5 6 6 6 6 5 5 5 6 6 6 6 6 6 5 4 5 5 5 6 6 6 5 4 3 3 3 5 5 5 5 5 5 4 3 3 2
2 1 2 5 5 5 6 5 4 2 3 3 5 7 7 6 5 5 5 4 4 4 4 5 6 6 6 4 4 4 4 4 5 5 5 3 3 4 5 5 4 4 4 4 3 2 1 1 1
1 1 2 6 7 5 4 4 4 2 3 4 5 6 6 6 5 5 4 4 4 3 4 4 5 6 6 5 4 4 4 4 4 5 4 4 4 4 4 4 3 3 2 2 1 0 1 1 1
1 3 4 4 5 3 2 2 3 4 3 5 6 6 5 4 5 5 4 4 4 4 4 3 5 5 5 5 4 4 4 4 4 4 4 4 4 4 4 3 2 1 1 2 1 1 2 2 1
1 1 3 4 5 3 2 1 1 2 3 4 5 6 5 5 5 5 5 5 4 5 4 3 4 5 5 5 5 5 4 4 4 4 4 5 4 3 3 2 2 2 2 2 2 2 2 3 3
3 3 2 1 1 1 1 1 1 1 3 3 4 5 5 6 6 5 6 7 6 6 5 4 4 5 5 5 4 4 5 5 4 4 4 4 4 3 3 3 3 3 3 2 2 2 2 2 3
2 2 2 3 3 2 1 2 2 3 3 3 4 4 5 6 6 6 6 6 6 6 6 5 4 6 5 5 4 5 5 4 4 4 3 4 4 4 3 3 2 3 2 2 2 3 3 2 2
4 4 2 3 3 3 2 2 3 4 2 2 3 4 5 6 6 6 6 6 6 6 6 6 6 5 4 5 5 5 5 4 4 4 4 3 4 4 3 3 3 3 3 2 2 1 1 1 1
4 3 2 2 3 1 3 2 2 2 2 2 3 4 4 5 6 6 6 6 6 6 6 6 6 6 5 4 5 5 5 5 4 4 4 4 3 3 3 3 3 3 3 2 2 1 1 1 1
2 3 3 2 1 1 3 3 2 2 2 2 2 3 4 5 6 6 6 5 5 5 6 6 6 6 5 4 4 4 3 4 5 5 6 5 5 4 3 2 2 2 2 1 1 1 1 0 0
4 4 4 2 2 2 5 5 4 3 3 3 3 3 4 4 5 5 5 6 6 6 6 6 6 6 5 3 3 2 2 2 3 4 6 5 5 5 4 2 2 2 1 1 0 0 1 1 0
4 5 4 2 1 3 5 7 5 5 4 4 4 3 4 4 4 5 5 6 6 6 6 5 5 5 4 3 3 2 2 2 2 4 5 5 5 5 4 3 2 2 1 1 1 0 0 1 1
4 3 4 4 4 5 5 6 5 5 6 5 4 4 4 4 4 5 5 5 6 6 6 5 5 4 4 4 3 3 3 3 2 3 3 5 6 5 5 4 3 2 1 2 2 2 2 2 2
3 4 4 5 4 4 4 5 5 8 7 6 4 3 3 4 4 4 5 5 5 5 5 5 5 4 4 4 3 3 3 3 3 3 3 5 5 5 5 5 4 3 2 2 3 3 2 3 3
2 4 5 7 7 6 6 5 4 8 6 6 5 5 3 4 4 5 5 5 5 5 5 4 5 5 5 4 3 3 3 3 3 3 4 3 4 5 5 5 4 4 3 3 3 3 4 3 3
2 4 6 6 3 5 7 6 4 3 6 7 6 5 4 3 4 5 5 5 5 5 5 5 5 5 5 5 4 3 4 4 4 4 4 3 3 3 4 5 5 4 3 3 3 4 4 4 4
2 2 2 2 4 6 1 3 3 4 7 7 6 5 4 4 3 4 4 5 5 6 6 6 6 6 6 5 5 4 4 4 4 4 4 4 3 3 4 5 5 4 4 4 4 4 4 4 4
2 3 2 4 4 3 2 5 2 7 8 7 6 5 4 3 3 4 4 4 4 5 6 6 6 7 7 6 5 5 5 4 4 4 4 4 4 4 4 5 5 5 5 5 4 3 4 4 4
2 2 2 2 5 5 6 3 2 5 5 5 4 3 3 3 3 4 4 4 4 5 5 6 6 6 7 7 6 5 5 5 5 5 4 4 4 5 5 5 4 5 5 5 4 3 4 4 4
3 2 1 2 4 6 7 5 4 7 5 3 2 2 3 3 4 4 4 4 4 4 4 5 6 6 6 6 6 7 6 6 5 5 5 5 5 5 5 4 4 5 5 5 4 4 3 3 4
3 3 4 4 4 4 6 3 2 6 6 4 2 2 3 3 3 4 4 4 4 4 4 5 6 6 6 6 6 7 6 6 6 5 6 6 6 5 5 4 4 4 5 5 4 4 4 4 4
2 3 3 3 5 4 4 4 4 6 5 3 2 2 2 3 3 4 4 5 5 6 5 5 5 6 6 6 6 7 7 6 6 6 6 6 6 6 6 5 4 4 5 5 4 5 5 5 5
Wind_Direction
298 270 257 265 252 229 215 62 64 59 61 52 40 31 38 36 33 84 90 28 49 88 106 101 92 90 86 81 76 73 70 66 63 63 66 67 64 63 63 62 63 65 71 72 71 74 75 77 78
297 289 268 247 250 225 153 87 75 56 62 59 54 39 51 65 65 90 56 21 45 82 99 99 94 91 89 83 77 73 71 69 66 65 64 66 67 64 64 62 62 62 67 70 72 77 77 79 80
278 272 262 250 267 296 75 69 74 75 64 48 63 46 37 40 54 60 54 37 48 73 89 90 91 87 87 83 78 75 72 70 69 69 64 66 67 67 66 62 62 63 63 66 70 77 81 83 80
282 250 247 253 297 12 60 75 75 90 92 66 66 80 79 46 42 55 59 51 59 67 85 91 88 83 81 78 75 74 70 68 70 71 69 69 68 67 69 66 63 62 61 63 68 75 82 84 81
248 261 230 213 225 31 48 53 58 40 57 64 63 84 80 54 59 60 55 48 57 58 74 87 85 83 76 71 67 65 66 67 66 65 66 68 67 68 70 71 67 63 62 63 66 73 77 84 84
271 258 238 212 154 98 65 41 55 53 43 44 45 90 86 64 53 49 52 47 52 55 63 76 69 75 73 68 66 61 60 61 59 58 58 61 67 65 69 72 69 65 64 66 70 75 76 77 77
290 281 262 252 131 84 65 47 35 36 39 22 6 43 102 56 51 52 56 48 48 55 56 66 64 62 64 64 65 62 58 57 54 51 49 50 59 64 62 69 69 69 67 69 74 79 81 74 68
315 307 261 239 174 71 64 60 41 29 33 26 16 30 63 42 55 63 63 53 47 55 49 51 62 59 56 60 59 59 55 51 50 50 48 47 54 63 64 65 68 75 74 76 76 79 81 75 67
297 278 291 355 33 67 66 55 50 61 50 39 48 51 64 71 67 64 59 44 39 45 43 36 43 45 46 58 59 58 58 51 50 48 46 46 35 50 72 75 78 76 75 79 80 84 88 91 82
305 289 20 20 33 56 52 36 16 59 59 39 58 58 64 69 69 60 52 44 37 33 31 27 28 33 37 44 58 52 54 55 52 49 41 25 27 40 56 74 82 82 79 84 85 85 88 106 151
348 33 45 36 49 54 42 27 6 358 30 28 32 41 54 54 57 52 41 41 39 36 32 23 19 25 31 24 40 38 45 48 44 46 28 18 36 49 52 65 74 77 88 77 94 158 304 4 67
68 34 27 39 42 39 28 9 20 22 32 36 35 38 57 47 42 39 35 29 25 34 33 23 22 21 20 20 19 31 35 37 30 31 13 19 31 37 37 39 40 44 57 59 11 331 3 20 63
162 113 61 67 64 55 54 49 51 45 58 57 57 52 49 52 45 39 35 33 30 30 27 20 26 20 14 16 13 20 21 26 29 31 10 19 27 21 29 18 21 4 25 37 356 1 11 18 30
80 101 129 128 128 123 84 200 163 134 106 85 66 57 51 50 45 40 34 27 22 21 22 22 30 17 17 19 13 10 14 24 29 29 10 17 23 16 16 10 13 11 21 357 354 30 24 20 34
131 171 201 187 175 148 109 275 167 139 114 83 74 68 63 55 47 41 39 32 23 19 20 20 28 23 19 15 10 11 9 21 20 13 5 17 16 15 11 2 357 13 13 351 5 36 41 32 37
215 216 208 158 154 149 223 252 116 106 106 94 89 82 79 68 55 46 40 36 28 24 20 19 23 21 17 12 6 9 6 13 17 11 3 5 8 3 6 5 358 360 7 12 10 39 51 32 33
210 238 241 162 157 163 238 246 139 139 166 152 115 97 83 71 57 49 41 37 28 28 22 20 22 18 7 6 6 7 9 3 4 10 4 355 349 344 355 0 353 346 5 5 359 26 34 54 26
271 271 281 236 149 241 252 247 203 195 184 156 121 101 86 73 61 49 41 36 31 34 31 24 17 17 12 12 9 4 9 4 360 7 1 356 348 336 351 352 335 336 350 356 10 35 13 40 103
316 303 301 332 60 312 263 258 227 200 182 157 126 98 87 77 71 58 40 31 30 31 30 21 16 10 9 8 2 359 350 339 349 355 355 351 346 341 344 334 327 327 293 266 283 88 47 320 81
289 285 297 334 46 301 274 267 236 192 175 142 121 102 85 67 55 49 40 35 30 22 19 14 12 6 1 356 346 337 326 317 343 349 344 341 335 333 332 322 307 301 271 253 228 160 244 261 209
289 298 313 309 308 255 261 266 211 161 141 129 114 96 80 69 50 38 32 32 26 16 8 4 0 358 356 357 353 352 350 351 352 336 330 334 331 331 324 314 311 304 279 235 229 212 226 231 250
286 5 329 296 287 260 213 278 217 172 162 154 141 115 83 68 52 37 26 22 16 7 2 359 355 354 355 360 356 348 330 315 309 307 304 318 327 330 324 321 308 294 279 256 243 242 233 217 229
344 339 297 274 267 278 234 240 245 163 169 166 148 122 92 69 57 40 27 18 12 6 0 357 354 353 354 354 345 330 315 307 310 304 295 300 319 327 326 320 312 298 280 263 260 249 231 225 226
314 287 268 259 249 260 230 216 248 178 169 146 138 124 105 75 56 38 23 17 8 3 358 355 352 349 350 348 338 326 314 311 312 308 303 296 296 306 313 313 308 301 293 275 266 257 242 233 228
273 297 304 278 231 244 205 224 240 95 100 117 120 115 99 69 48 25 11 6 359 354 352 350 352 346 345 344 339 329 316 306 296 297 296 299 294 292 288 303 302 300 292 286 278 258 250 243 234
244 267 241 255 262 293 273 238 157 102 93 91 95 96 83 58 34 19 5 354 347 349 352 350 348 343 344 341 334 327 321 306 295 293 294 285 282 284 294 304 302 304 297 288 280 267 256 251 240
255 233 335 298 290 279 248 194 121 121 114 111 103 86 68 56 29 4 358 354 349 347 349 346 343 341 340 337 331 325 324 316 305 298 293 288 289 293 298 301 301 301 297 289 278 262 258 249 242
275 304 213 219 255 265 264 236 206 171 169 152 116 74 39 31 14 1 353 348 342 343 342 342 341 338 335 337 334 328 325 319 313 307 301 298 298 298 293 292 293 294 296 297 283 264 259 254 250
204 230 235 252 255 255 278 278 34 149 150 145 125 73 32 17 0 347 340 342 341 342 342 340 338 336 334 333 329 326 323 322 321 315 310 308 308 303 292 286 282 285 287 290 284 274 257 252 255
259 232 201 224 256 247 269 276 66 89 104 111 101 51 28 16 358 346 340 345 346 340 335 333 333 333 330 328 326 323 320 320 318 317 316 317 313 311 303 294 281 276 280 279 275 280 273 257 254
Height
1508 1509 1511 1514 1515 1516 1515 1508 1504 1507 1509 1514 1515 1516 1519 1523 1527 1537 1536 1534 1533 1532 1532 1533 1533 1534 1535 1535 1536 1537 1537 1538 1538 1539 1539 1539 1540 1540 1541 1541 1541 1542 1542 1543 1543 1544 1544 1545 1545
1508 1510 1513 1514 1516 1520 1515 1507 1509 1511 1514 1515 1517 1519 1520 1526 1530 1533 1533 1534 1533 1533 1533 1533 1534 1534 1535 1536 1536 1537 1538 1538 1539 1539 1539 1540 1540 1541 1541 1541 1542 1542 1543 1543 1544 1544 1545 1546 1546
1510 1511 1514 1512 1513 1515 1514 1510 1511 1513 1515 1517 1519 1522 1525 1530 1532 1533 1533 1534 1533 1533 1533 1533 1534 1535 1535 1536 1536 1537 1538 1538 1539 1539 1540 1540 1541 1541 1541 1542 1542 1543 1543 1544 1544 1545 1546 1546 1547
1511 1513 1513 1515 1516 1511 1510 1511 1512 1514 1517 1518 1520 1524 1529 1533 1533 1533 1533 1534 1533 1533 1533 1533 1534 1535 1535 1536 1537 1537 1538 1538 1539 1539 1540 1540 1541 1541 1542 1542 1542 1543 1543 1544 1544 1545 1546 1547 1548
1512 1513 1514 1516 1514 1512 1511 1512 1514 1516 1518 1520 1521 1526 1531 1534 1533 1533 1533 1534 1534 1534 1533 1533 1534 1535 1535 1536 1536 1537 1538 1538 1539 1539 1540 1540 1541 1541 1541 1542 1542 1543 1543 1544 1544 1545 1546 1547 1548
1514 1512 1516 1518 1514 1512 1513 1515 1516 1518 1520 1521 1523 1526 1532 1534 1533 1533 1533 1533 1534 1533 1533 1533 1534 1535 1535 1536 1536 1537 1537 1538 1538 1539 1539 1540 1540 1540 1541 1541 1542 1543 1543 1544 1544 1545 1546 1547 1548
1515 1513 1514 1513 1515 1515 1516 1518 1519 1521 1522 1524 1525 1527 1532 1533 1533 1533 1533 1533 1534 1533 1533 1533 1534 1534 1535 1535 1536 1536 1537 1537 1538 1538 1539 1539 1540 1540 1540 1541 1541 1542 1543 1543 1544 1545 1546 1547 1548
1513 1514 1513 1513 1515 1518 1519 1520 1523 1524 1526 1527 1527 1529 1533 1534 1533 1533 1533 1533 1533 1533 1533 1533 1533 1534 1534 1534 1535 1536 1536 1537 1537 1538 1538 1538 1539 1539 1540 1540 1541 1541 1542 1543 1543 1544 1545 1546 1547
1514 1518 1518 1516 1516 1520 1520 1522 1525 1527 1528 1529 1530 1532 1534 1533 1533 1532 1532 1533 1533 1533 1533 1533 1533 1533 1533 1534 1534 1535 1535 1536 1536 1537 1537 1537 1538 1538 1539 1539 1540 1540 1541 1542 1543 1544 1544 1546 1547
1516 1520 1520 1518 1518 1521 1523 1524 1526 1527 1528 1531 1532 1533 1533 1533 1532 1532 1532 1532 1532 1532 1532 1532 1532 1533 1533 1533 1533 1534 1534 1534 1535 1535 1536 1536 1537 1537 1537 1538 1539 1539 1540 1541 1542 1543 1544 1545 1546
1517 1520 1520 1521 1521 1523 1525 1527 1527 1528 1530 1532 1533 1533 1533 1532 1532 1532 1532 1532 1532 1532 1532 1532 1532 1532 1532 1532 1533 1533 1533 1533 1534 1534 1535 1535 1535 1536 1536 1537 1537 1538 1539 1539 1540 1541 1542 1543 1545
1519 1521 1521 1523 1524 1525 1526 1528 1529 1530 1533 1533 1533 1533 1532 1532 1532 1531 1531 1531 1531 1531 1531 1531 1531 1531 1532 1532 1532 1532 1532 1532 1533 1533 1533 1533 1534 1534 1535 1535 1536 1536 1537 1538 1539 1540 1541 1542 1543
1520 1523 1524 1525 1525 1527 1528 1529 1530 1532 1533 1533 1533 1533 1532 1532 1531 1531 1531 1531 1530 1530 1530 1530 1530 1530 1531 1531 1531 1531 1531 1531 1531 1532 1532 1532 1532 1532 1533 1534 1535 1535 1535 1536 1537 1538 1539 1541 1541
1521 1522 1524 1525 1526 1527 1528 1529 1530 1531 1532 1532 1533 1532 1532 1532 1531 1530 1530 1529 1529 1529 1529 1529 1529 1529 1529 1529 1529 1530 1530 1530 1530 1530 1530 1531 1531 1531 1532 1532 1533 1534 1534 1535 1535 1536 1537 1538 1539
1522 1523 1524 1524 1525 1526 1528 1529 1529 1530 1531 1532 1532 1532 1532 1532 1531 1530 1530 1529 1528 1528 1528 1528 1528 1528 1528 1528 1528 1528 1528 1529 1528 1529 1529 1529 1529 1529 1530 1530 1531 1532 1532 1533 1533 1534 1535 1536 1537
1521 1522 1525 1523 1524 1525 1529 1530 1529 1530 1531 1531 1532 1532 1532 1532 1531 1530 1530 1529 1528 1527 1527 1526 1526 1526 1526 1526 1526 1526 1526 1526 1527 1527 1527 1527 1527 1527 1528 1528 1529 1529 1530 1530 1531 1532 1533 1533 1534
1521 1523 1522 1524 1523 1524 1527 1529 1529 1529 1530 1530 1531 1531 1531 1531 1531 1530 1529 1528 1527 1526 1526 1525 1525 1525 1525 1525 1525 1525 1525 1525 1525 1524 1524 1524 1525 1525 1526 1526 1526 1527 1527 1528 1529 1529 1530 1531 1532
1522 1520 1519 1522 1523 1524 1526 1527 1527 1528 1528 1529 1530 1531 1531 1531 1531 1530 1529 1528 1527 1526 1525 1524 1524 1523 1523 1523 1523 1523 1523 1522 1522 1522 1522 1522 1522 1522 1523 1523 1524 1524 1525 1525 1526 1527 1528 1529 1530
1519 1519 1521 1522 1523 1525 1525 1525 1525 1526 1527 1528 1529 1530 1531 1531 1531 1530 1529 1528 1527 1526 1524 1524 1523 1522 1522 1521 1520 1520 1519 1520 1520 1519 1519 1520 1520 1520 1520 1520 1521 1521 1521 1522 1523 1524 1525 1526 1527
1519 1521 1522 1523 1523 1525 1524 1523 1522 1523 1524 1526 1528 1529 1530 1531 1530 1530 1528 1527 1526 1525 1524 1523 1522 1521 1521 1520 1519 1518 1518 1517 1517 1517 1517 1517 1517 1517 1517 1517 1517 1518 1518 1519 1520 1521 1521 1523 1525
1521 1523 1524 1526 1525 1523 1524 1523 1519 1520 1523 1526 1527 1529 1529 1530 1530 1530 1528 1527 1526 1525 1523 1522 1521 1520 1519 1518 1517 1517 1516 1515 1514 1514 1514 1514 1514 1514 1514 1514 1514 1514 1515 1515 1516 1518 1518 1520 1522
1524 1524 1524 1526 1529 1528 1524 1530 1518 1518 1522 1524 1527 1528 1529 1530 1530 1529 1528 1527 1525 1524 1523 1521 1520 1519 1518 1517 1515 1514 1513 1512 1511 1511 1510 1510 1510 1510 1511 1511 1511 1511 1512 1512 1513 1514 1515 1517 1518
1526 1526 1525 1525 1526 1527 1522 1527 1517 1515 1520 1523 1525 1527 1528 1529 1529 1529 1528 1526 1525 1524 1522 1520 1519 1518 1516 1515 1513 1512 1511 1510 1509 1508 1507 1507 1506 1507 1507 1507 1507 1508 1508 1509 1509 1510 1512 1513 1514
1527 1526 1524 1523 1526 1531 1517 1520 1515 1516 1515 1520 1523 1526 1527 1528 1528 1528 1527 1526 1524 1522 1521 1519 1517 1516 1514 1513 1511 1510 1508 1507 1505 1504 1503 1502 1502 1502 1503 1503 1503 1504 1504 1505 1505 1506 1507 1509 1510
1528 1531 1533 1532 1531 1523 1511 1514 1517 1514 1514 1518 1522 1524 1526 1527 1527 1526 1525 1524 1522 1521 1519 1517 1515 1513 1512 1510 1508 1507 1505 1504 1502 1501 1500 1499 1498 1498 1498 1499 1499 1499 1500 1500 1501 1502 1503 1504 1505
1528 1529 1535 1536 1528 1519 1517 1517 1518 1516 1517 1519 1522 1524 1525 1526 1526 1525 1524 1523 1521 1519 1517 1515 1513 1511 1509 1507 1505 1504 1502 1500 1499 1497 1496 1495 1495 1494 1494 1494 1494 1495 1495 1496 1497 1497 1498 1499 1501
1527 1529 1528 1533 1529 1528 1517 1514 1520 1517 1519 1520 1522 1524 1524 1525 1525 1524 1523 1521 1519 1517 1515 1513 1511 1509 1507 1505 1503 1501 1499 1497 1495 1494 1493 1491 1490 1490 1490 1489 1490 1490 1491 1491 1492 1492 1493 1494 1495
1529 1527 1532 1534 1534 1528 1512 1508 1514 1519 1519 1521 1522 1522 1523 1524 1523 1522 1521 1519 1517 1515 1513 1511 1509 1507 1504 1502 1500 1498 1495 1493 1491 1490 1488 1487 1486 1486 1485 1485 1485 1485 1486 1486 1487 1488 1488 1489 1490
1529 1529 1528 1528 1526 1530 1524 1516 1511 1513 1516 1519 1520 1521 1522 1522 1521 1520 1519 1517 1515 1513 1511 1509 1506 1504 1501 1499 1496 1494 1492 1490 1488 1486 1484 1483 1482 1481 1481 1480 1480 1480 1481 1481 1482 1483 1484 1484 1485
1524 1524 1527 1535 1531 1526 1527 1524 1513 1513 1515 1517 1519 1520 1520 1520 1520 1519 1517 1515 1513 1511 1509 1506 1503 1501 1498 1496 1493 1491 1488 1486 1484 1482 1480 1479 1478 1477 1476 1476 1475 1475 1476 1476 1477 1477 1478 1479 1480